Weather History for LTCF - April, 2013

Change the Weather History Date:

Wednesday, April 17, 2013

  Actual Average Record
Temperature  
Mean Temperature 40 °F -  
Max Temperature 47 °F 57 °F - ()
Min Temperature 33 °F 36 °F - ()
Degree Days  
Heating Degree Days 25    
Moisture  
Dew Point 35 °F    
Average Humidity 90    
Maximum Humidity 100    
Minimum Humidity 61    
Precipitation  
Precipitation 0.16 in 0.08 in - ()
Sea Level Pressure  
Sea Level Pressure 29.82 in    
Wind  
Wind Speed 6 mph ()    
Max Wind Speed 16 mph    
Max Gust Speed -    
Visibility 5.3 miles    
Events Rain , Hail , Thunderstorm    
T = Trace of Precipitation, MM = Missing Value Source: Averaged Metar Reports

Daily Weather History Graph

Daily Weather History Graph

Search for Another Location

Airport or City:

Trip Planner

Search our weather history database for the weather conditions in past years. The results will help you decide how hot, cold, wet, or windy it might be!

Date:

Astronomy

Apr. 17, 2013 Rise Set
Actual Time 5:26 AM EEST 6:48 PM EEST
Civil Twilight 4:57 AM EEST 7:17 PM EEST
Nautical Twilight 4:23 AM EEST 7:51 PM EEST
Astronomical Twilight 3:47 AM EEST 8:27 PM EEST
Moon 10:18 AM EEST (4/17) 12:12 AM EEST (4/17)
Length of Visible Light 14h 19m
Length of Day
13h 22m
Waxing Crescent, 39% of the Moon is Illuminated
Apr 17
Waxing Crescent
Apr 18
First Quarter
Apr 25
Full
May 2
Last Quarter
May 10
New

Hourly Weather History & Observations

Time (EEST) Temp. Windchill Dew Point Humidity Pressure Visibility Wind Dir Wind Speed Gust Speed Precip Events Conditions
12:50 AM 33.8 °F - 33.8 °F 100% 29.83 in 6.2 mi Variable 1.2 mph - N/A   Mostly Cloudy
1:50 AM 33.8 °F 29.6 °F 33.8 °F 100% 29.83 in 2.5 mi NNE 4.6 mph - N/A   Mostly Cloudy
3:00 AM 33 °F - 31 °F 90%  in 1 mi Calm Calm - -   Mist
3:50 AM 32.0 °F - 32.0 °F 100% 29.80 in - North - - N/A   Mostly Cloudy
4:50 AM 32.0 °F - 32.0 °F 100% 29.80 in - North - - N/A   Mostly Cloudy
5:50 AM 33.8 °F - 32.0 °F 93% 29.80 in - North - - N/A   Mostly Cloudy
6:50 AM 35.6 °F - 33.8 °F 93% 29.80 in - North - - N/A   Mostly Cloudy
7:50 AM 37.4 °F - 35.6 °F 93% 29.80 in - North - - N/A   Mostly Cloudy
8:50 AM 35.6 °F - 33.8 °F 93% 29.80 in - North - - N/A   Mostly Cloudy
9:00 AM 36 °F - 33 °F 87%  in 6 mi Calm Calm - -   Mostly Cloudy
9:31 AM 37.4 °F 30.3 °F 35.6 °F 93% 29.80 in 6.2 mi North 10.4 mph - N/A   Mostly Cloudy
9:50 AM 39.2 °F 32.0 °F 37.4 °F 93% 29.80 in 6.2 mi NNE 11.5 mph - N/A   Mostly Cloudy
10:16 AM 39.2 °F 32.5 °F 35.6 °F 87% 29.80 in 6.2 mi NNE 10.4 mph - N/A Rain Light Rain Showers
10:50 AM 41.0 °F 35.8 °F 39.2 °F 93% 29.80 in 6.2 mi NNE 8.1 mph - N/A Rain Light Rain Showers
11:50 AM 41.0 °F - 37.4 °F 87% 29.80 in - North - - N/A Rain Light Rain Showers
12:15 PM 42.8 °F - 37.4 °F 81% 29.80 in - North - - N/A   Mostly Cloudy
12:50 PM 42.8 °F - 37.4 °F 81% 29.80 in - North - - N/A   Mostly Cloudy
1:22 PM 42.8 °F - 37.4 °F 81% 29.80 in - North - - N/A Rain Light Rain Showers
1:50 PM 44.6 °F - 35.6 °F 71% 29.77 in - North - - N/A   Scattered Clouds
2:50 PM 46.4 °F - 35.6 °F 66% 29.77 in - North - - N/A   Scattered Clouds
3:00 PM 46 °F - 37 °F 61%  in 6 mi North 8.1 mph - -   Partly Cloudy
3:06 PM 44.6 °F - 35.6 °F 71% 29.77 in - North - - N/A Hail , Thunderstorm Light Thunderstorms with Hail
3:08 PM 42.8 °F - 35.6 °F 76% 29.77 in - North - - N/A Rain , Thunderstorm Light Thunderstorms and Rain
3:15 PM 35.6 °F - 33.8 °F 93% 29.80 in - North - - N/A Rain , Hail , Thunderstorm Thunderstorms with Hail
3:20 PM 35.6 °F 25.9 °F 35.6 °F 100% 29.83 in 5.0 mi West 16.1 mph - N/A Rain , Thunderstorm Light Thunderstorms and Rain
3:50 PM 37.4 °F 32.8 °F 37.4 °F 100% 29.80 in 6.2 mi North 5.8 mph - N/A   Mostly Cloudy
4:14 PM 37.4 °F 31.4 °F 37.4 °F 100% 29.83 in 4.3 mi East 8.1 mph - N/A Rain Light Rain Showers
4:50 PM 35.6 °F 29.2 °F 35.6 °F 100% 29.83 in 2.5 mi NNE 8.1 mph - N/A Rain Rain Showers
5:08 PM 35.6 °F 29.2 °F 35.6 °F 100% 29.83 in 6.2 mi NNE 8.1 mph - N/A Rain Light Rain Showers
5:50 PM 37.4 °F 32.8 °F 35.6 °F 93% 29.83 in 6.2 mi NE 5.8 mph - N/A Rain Light Rain Showers
6:50 PM 37.4 °F 32.8 °F 35.6 °F 93% 29.83 in 6.2 mi NE 5.8 mph - N/A   Mostly Cloudy
7:50 PM 37.4 °F 32.8 °F 35.6 °F 93% 29.83 in 6.2 mi ENE 5.8 mph - N/A   Mostly Cloudy
8:50 PM 35.6 °F - 35.6 °F 100% 29.89 in - North - - N/A   Mostly Cloudy
9:00 PM 36 °F - 33 °F 85%  in 6 mi Calm Calm - -   Partly Cloudy
9:50 PM 35.6 °F - 33.8 °F 93% 29.92 in - North - - N/A   Mostly Cloudy
10:50 PM 35.6 °F - 33.8 °F 93% 29.92 in - North - - N/A   Mostly Cloudy
11:50 PM 35.6 °F - 33.8 °F 93% 29.92 in - North - - N/A   Mostly Cloudy